Home   Weather   Malī Sar   Past weeks
Flag for Iran

Past Weather in Malī Sar, Iran — Yesterday and Last 2 Weeks

Now
81 °F

Fog.


Feels Like: 86 °F
Forecast: 92 / 78 °F
Wind: 5 mph from Northwest

Location: Bandarabbass

Current Time: Oct 19, 2019 at 5:55:25 am

Latest Report: Oct 19, 2019 at 4:30 am


Visibility: 2 mi

Pressure: 29.86 "Hg

Humidity: 84%

Dew Point: 75 °F

Location of Malī SarLocation

Past Weather in Malī Sar — Graph

°F

Malī Sar Temperature Yesterday

Maximum temperature yesterday: 97 °F (at 10:30 am)
Minimum temperature yesterday: 81 °F (at 2:30 am)
Average temperature yesterday: 88 °F

High & Low Weather Summary for the Past Weeks

 TemperatureHumidityPressure
High102 °F (Oct 15, 11:30 am)94% (Oct 5, 2:30 am)30.01 "Hg (Oct 5, 2:30 am)
Low73 °F (Oct 15, 5:30 am)8% (Oct 15, 11:30 am)29.65 "Hg (Oct 4, 4:30 pm)
Average88 °F70%29.84 "Hg
* Reported Oct 4 4:30 am — Oct 19 4:30 am, Malī Sar. Weather by CustomWeather, © 2019

Note: Actual official high and low records may vary slightly from our data, if they occured in-between our weather recording intervals... More about our weather records

Advertising

Malī Sar Weather History for the Previous 24 Hours

Scroll right to see more
 ConditionsComfort  
Time TempWeatherWind HumidityBarometerVisibility
4:30 am
Sat, Oct 19
81 °FFog.5 mph84%29.86 "Hg2 mi
3:30 am81 °FFog.5 mph84%29.83 "Hg2 mi
2:30 am81 °FFog.5 mph84%29.83 "Hg2 mi
1:30 am81 °FFog.5 mph79%29.83 "Hg2 mi
1:00 am81 °FHaze.5 mph79%29.83 "Hg2 mi
12:30 am82 °FHaze.5 mph79%29.83 "Hg2 mi
12:00 am82 °FHaze.7 mph79%29.83 "Hg2 mi
11:30 pm
Fri, Oct 18
82 °FHaze.7 mph79%29.83 "Hg2 mi
11:00 pm86 °FHaze.7 mph70%29.86 "Hg2 mi
10:30 pm86 °FHaze.7 mph70%29.86 "Hg2 mi
10:00 pm86 °FHaze.7 mph75%29.86 "Hg2 mi
9:30 pm86 °FHaze.7 mph75%29.86 "Hg2 mi
9:00 pm86 °FHaze.7 mph75%29.83 "Hg2 mi
8:30 pm88 °FHaze.7 mph70%29.83 "Hg2 mi
8:00 pm88 °FHaze.12 mph70%29.83 "Hg2 mi
7:30 pm88 °FHaze.9 mph66%29.83 "Hg2 mi
7:00 pm88 °FHaze.14 mph70%29.83 "Hg2 mi
6:30 pm90 °FHaze.12 mph67%29.80 "Hg2 mi
6:00 pm90 °FHaze.7 mph67%29.80 "Hg2 mi
5:30 pm90 °FHaze.12 mph75%29.80 "Hg2 mi
5:00 pm90 °FHaze.7 mph71%29.80 "Hg2 mi
4:30 pm90 °FScattered clouds.12 mph71%29.80 "Hg2 mi
4:00 pm90 °FScattered clouds.14 mph67%29.80 "Hg2 mi
3:30 pm93 °FHaze.12 mph53%29.80 "Hg2 mi
3:00 pm95 °FHaze.5 mph47%29.80 "Hg2 mi
2:30 pm95 °FScattered clouds.12 mph44%29.80 "Hg2 mi
2:00 pm95 °FScattered clouds.12 mph41%29.83 "Hg2 mi
1:30 pm93 °FHaze.12 mph47%29.83 "Hg2 mi
1:00 pm95 °FHaze.9 mph44%29.83 "Hg2 mi
12:30 pm95 °FHaze.9 mph41%29.86 "Hg2 mi
12:00 pm95 °FHaze.9 mph47%29.86 "Hg2 mi
11:30 am95 °FHaze.9 mph50%29.89 "Hg2 mi
11:00 am95 °FHaze.7 mph47%29.89 "Hg2 mi
10:30 am97 °FHaze.7 mph37%29.92 "Hg2 mi
10:00 am95 °FHaze.2 mph47%29.92 "Hg2 mi
9:30 am95 °FHaze.2 mph50%29.92 "Hg2 mi
9:00 am91 °FHaze.2 mph59%29.92 "Hg1 mi
8:30 am90 °FHaze.2 mph67%29.92 "Hg1 mi
8:00 am88 °FHaze.5 mph79%29.92 "Hg1 mi
7:30 am84 °FFog.5 mph84%29.92 "Hg1 mi
7:00 am82 °FFog.5 mph84%29.92 "Hg1 mi
6:30 am81 °FFog.5 mph84%29.89 "Hg1 mi
6:00 am81 °FFog.5 mph84%29.89 "Hg1 mi
5:30 am81 °FFog.5 mph84%29.89 "Hg1 mi
Weather by CustomWeather, © 2019

See weather overview